GW6600 Weather Reports


Display with metric or nautical units.
time (UTC)temp
F
wind
direction
speed
MPH
gust
MPH
rain 1hr
in
rain 24hr
in
rain mn
in
humidity
%
barometer
mb
20260906094820 72 154 0.0 1.0 0.00 0.00 0.00 96 1014.7
20260906094315 72 154 0.0 1.0 0.00 0.00 0.00 96 1014.8
20260906093811 72 154 0.0 1.0 0.00 0.00 0.00 96 1014.5
20260906093307 72 154 0.0 0.0 0.00 0.00 0.00 96 1014.7
20260906092802 72 154 0.0 0.0 0.00 0.00 0.00 96 1014.7
20260906092305 73 154 0.0 0.0 0.00 0.00 0.00 96 1014.8
20260906091758 73 154 0.0 0.0 0.00 0.00 0.00 96 1014.8
20260906091254 73 154 0.0 0.0 0.00 0.00 0.00 96 1014.8
20260906090750 73 154 0.0 0.0 0.00 0.00 0.00 96 1014.7
20260906090249 73 154 0.0 1.0 0.00 0.00 0.00 96 1014.9
20260906085748 73 153 0.0 0.0 0.00 0.00 0.00 96 1014.9
20260906085247 73 153 1.0 1.0 0.00 0.00 0.00 96 1014.5
20260906084743 73 153 0.0 1.0 0.00 0.00 0.00 96 1014.5
20260906084242 73 153 0.0 1.0 0.00 0.00 0.00 96 1014.5
20260906083737 73 153 0.0 0.0 0.00 0.00 0.00 96 1014.3
20260906083232 73 153 0.0 0.0 0.00 0.00 0.00 96 1014.2
20260906082727 73 153 0.0 0.0 0.00 0.00 0.00 96 1014.4
20260906082223 73 153 0.0 0.0 0.00 0.00 0.00 96 1014.5
20260906081719 73 153 0.0 0.0 0.00 0.00 0.00 96 1014.5
20260906081219 73 153 0.0 0.0 0.00 0.00 0.00 96 1014.3
20260906080715 73 153 0.0 0.0 0.00 0.00 0.00 96 1014.4
20260906080211 73 153 0.0 0.0 0.00 0.00 0.00 96 1014.4
20260906075706 73 153 0.0 0.0 0.00 0.00 0.00 96 1014.5
20260906075200 73 153 0.0 1.0 0.00 0.00 0.00 96 1014.5
20260906074655 73 153 0.0 1.0 0.00 0.00 0.00 96 1014.5
20260906074154 73 154 1.0 2.0 0.00 0.00 0.00 96 1014.7
20260906073649 73 156 2.0 3.0 0.00 0.00 0.00 96 1014.4
20260906073145 73 138 1.0 2.0 0.00 0.00 0.00 96 1014.5
20260906072640 73 101 0.0 0.0 0.00 0.00 0.00 96 1014.1
20260906072136 73 101 0.0 0.0 0.00 0.00 0.00 96 1014.2
20260906071632 73 101 0.0 0.0 0.00 0.00 0.00 96 1014.0
20260906071132 73 100 0.0 0.0 0.00 0.00 0.00 96 1013.9
20260906070629 73 100 0.0 0.0 0.00 0.00 0.00 95 1013.9
20260906070124 73 100 0.0 0.0 0.00 0.00 0.00 95 1014.1
20260906065624 74 100 0.0 0.0 0.00 0.00 0.00 95 1014.0
20260906065119 74 100 0.0 0.0 0.00 0.00 0.00 95 1014.1
20260906064615 74 100 0.0 0.0 0.00 0.00 0.00 95 1014.1
20260906064110 74 100 0.0 0.0 0.00 0.00 0.00 95 1014.2
20260906063605 74 100 0.0 0.0 0.00 0.00 0.00 95 1014.2
20260906063101 74 109 0.0 0.0 0.00 0.00 0.00 95 1014.3
20260906062556 74 113 0.0 0.0 0.00 0.00 0.00 95 1014.4
20260906062055 74 113 0.0 0.0 0.00 0.00 0.00 95 1014.7
20260906061552 74 113 0.0 0.0 0.00 0.00 0.00 95 1014.7
20260906061051 74 118 0.0 0.0 0.00 0.00 0.00 95 1014.7
20260906060547 74 130 0.0 0.0 0.00 0.00 0.00 95 1014.5
20260906060044 74 132 0.0 0.0 0.00 0.00 0.00 95 1014.5
20260906055540 74 132 0.0 0.0 0.00 0.00 0.00 94 1014.7
20260906055035 74 132 0.0 0.0 0.00 0.00 0.00 94 1014.5
20260906054535 74 132 0.0 0.0 0.00 0.00 0.00 94 1014.8
20260906054031 74 132 0.0 0.0 0.00 0.00 0.00 94 1014.8
20260906053527 74 111 0.0 0.0 0.00 0.00 0.00 94 1014.9
20260906053022 74 111 0.0 0.0 0.00 0.00 0.00 94 1015.0
20260906052518 74 111 0.0 0.0 0.00 0.00 0.00 94 1015.2
20260906052015 74 111 0.0 0.0 0.00 0.00 0.00 94 1015.0
20260906051510 74 111 0.0 0.0 0.00 0.00 0.00 94 1015.1
20260906051006 74 111 0.0 0.0 0.00 0.00 0.00 94 1014.9
20260906050500 75 111 0.0 0.0 0.00 0.00 0.00 94 1014.9
20260906050000 75 111 0.0 0.0 0.00 0.00 0.00 93 1014.9
20260906045458 75 111 0.0 0.0 0.00 0.00 0.00 93 1015.0
20260906044955 75 111 0.0 0.0 0.00 0.00 0.00 93 1015.0
20260906044449 75 111 0.0 0.0 0.00 0.00 0.00 93 1015.1
20260906043945 75 111 0.0 0.0 0.00 0.00 0.00 93 1015.0
20260906043441 75 110 0.0 0.0 0.00 0.00 0.00 93 1015.1
20260906042936 75 110 0.0 0.0 0.00 0.00 0.00 93 1015.1
20260906042435 75 111 0.0 0.0 0.00 0.00 0.00 92 1015.2
20260906041930 75 111 0.0 0.0 0.00 0.00 0.00 92 1015.3
20260906041427 75 111 0.0 0.0 0.00 0.00 0.00 92 1015.4
20260906040926 75 110 0.0 0.0 0.00 0.00 0.00 92 1015.3
20260906040421 75 110 0.0 0.0 0.00 0.00 0.00 92 1015.2
20260906035917 75 110 0.0 0.0 0.00 0.00 0.00 92 1015.4
20260906035412 76 110 0.0 0.0 0.00 0.00 0.00 91 1015.6
20260906034907 76 110 0.0 0.0 0.00 0.00 0.00 91 1015.2
20260906034401 76 110 0.0 0.0 0.00 0.00 0.00 91 1015.1
20260906033857 76 110 0.0 0.0 0.00 0.00 0.00 91 1015.2
20260906033357 76 110 0.0 0.0 0.00 0.00 0.00 90 1015.1
20260906032853 76 110 0.0 0.0 0.00 0.00 0.00 90 1015.2
20260906032349 76 110 0.0 0.0 0.00 0.00 0.00 90 1015.4
20260906031844 76 102 0.0 0.0 0.00 0.00 0.00 90 1015.2
20260906031339 76 102 0.0 0.0 0.00 0.00 0.00 89 1015.0
20260906030839 77 102 0.0 0.0 0.00 0.00 0.00 89 1015.0
20260906030335 77 102 0.0 0.0 0.00 0.00 0.00 88 1015.2
20260906025835 77 109 0.0 0.0 0.00 0.00 0.00 88 1015.2
20260906025328 77 109 0.0 0.0 0.00 0.00 0.00 87 1015.2
20260906024828 78 109 0.0 0.0 0.00 0.00 0.00 87 1015.3
20260906024327 78 108 0.0 1.0 0.00 0.00 0.00 86 1015.1
20260906023823 78 114 0.0 1.0 0.00 0.00 0.00 85 1015.1
20260906023318 77 130 0.0 1.0 0.00 0.00 0.00 87 1015.0
20260906022814 77 127 0.0 1.0 0.00 0.00 0.00 88 1015.0
20260906022308 77 127 0.0 0.0 0.00 0.00 0.00 87 1014.9
20260906021804 77 127 0.0 0.0 0.00 0.00 0.00 87 1014.9
20260906021304 77 127 0.0 1.0 0.00 0.00 0.00 87 1014.8
20260906020759 77 115 0.0 0.0 0.00 0.00 0.00 87 1014.8
20260906020258 78 115 0.0 0.0 0.00 0.00 0.00 86 1014.9
20260906015758 78 115 0.0 0.0 0.00 0.00 0.00 86 1014.9
20260906015256 78 115 0.0 0.0 0.00 0.00 0.00 85 1014.5
20260906014751 78 116 0.0 0.0 0.00 0.00 0.00 85 1015.0
20260906014247 78 116 0.0 1.0 0.00 0.00 0.00 84 1014.8
20260906013743 79 100 0.0 1.0 0.00 0.00 0.00 83 1014.4
20260906013243 79 100 0.0 0.0 0.00 0.00 0.00 83 1014.5
20260906012738 79 58 2.0 3.0 0.00 0.00 0.00 84 1014.5
20260906012233 79 147 0.0 0.0 0.00 0.00 0.00 83 1014.7
20260906011729 79 147 0.0 0.0 0.00 0.00 0.00 82 1014.5
20260906011228 80 147 0.0 1.0 0.00 0.00 0.00 82 1014.4
20260906010724 80 137 0.0 1.0 0.00 0.00 0.00 81 1014.2
20260906010220 80 116 0.0 0.0 0.00 0.00 0.00 81 1014.3
20260906005715 80 142 0.0 0.0 0.00 0.00 0.00 81 1014.4
20260906005214 80 142 0.0 0.0 0.00 0.00 0.00 80 1014.4
20260906004713 80 152 1.0 1.0 0.00 0.00 0.00 80 1014.2
20260906004208 80 140 0.0 0.0 0.00 0.00 0.00 80 1014.3
20260906003704 81 140 0.0 0.0 0.00 0.00 0.00 80 1014.3
20260906003159 81 139 0.0 0.0 0.00 0.00 0.00 79 1014.3
20260906002659 81 139 0.0 0.0 0.00 0.00 0.00 79 1014.3
20260906002154 81 125 0.0 0.0 0.00 0.00 0.00 79 1014.3
20260906001649 82 151 0.0 1.0 0.00 0.00 0.00 78 1014.0
20260906001149 82 161 1.0 2.0 0.00 0.00 0.00 78 1014.2
20260906000645 82 122 0.0 1.0 0.00 0.00 0.00 79 1014.1
20260906000140 82 146 1.0 1.0 0.00 0.00 0.00 78 1014.1
20260905235639 83 144 0.0 1.0 0.00 0.00 0.00 77 1014.2
20260905235134 84 136 0.0 0.0 0.00 0.00 0.00 76 1014.1
20260905234629 84 141 1.0 2.0 0.00 0.00 0.00 74 1014.1
20260905234126 84 183 1.0 1.0 0.00 0.00 0.00 73 1014.1
20260905233626 85 122 0.0 1.0 0.00 0.00 0.00 74 1014.0
20260905233120 85 59 1.0 2.0 0.00 0.00 0.00 72 1014.1
20260905232615 85 141 0.0 1.0 0.00 0.00 0.00 73 1014.2
20260905232111 86 127 0.0 2.0 0.00 0.00 0.00 72 1014.0
20260905231611 86 137 0.0 1.0 0.00 0.00 0.00 71 1014.2
20260905231108 87 141 0.0 2.0 0.00 0.00 0.00 70 1014.0
20260905230603 87 41 1.0 2.0 0.00 0.00 0.00 71 1013.9
20260905225600 87 171 1.0 2.0 0.00 0.00 0.00 68 1014.0
20260905225055 87 199 2.0 3.0 0.00 0.00 0.00 68 1013.9
20260905224555 88 207 1.0 2.0 0.00 0.00 0.00 67 1013.9
20260905224055 88 145 0.0 1.0 0.00 0.00 0.00 68 1013.9
20260905223552 88 102 2.0 2.0 0.00 0.00 0.00 67 1013.8
20260905223048 89 222 1.0 2.0 0.00 0.00 0.00 66 1013.8
20260905222548 89 114 1.0 1.0 0.00 0.00 0.00 66 1013.7
20260905222044 89 205 4.0 7.0 0.00 0.00 0.00 63 1013.8
20260905221540 90 191 2.0 6.0 0.00 0.00 0.00 60 1013.7
20260905221036 89 150 1.0 3.0 0.00 0.00 0.00 62 1013.5
20260905220531 90 142 1.0 6.0 0.00 0.00 0.00 58 1013.7
20260905220027 91 194 3.0 6.0 0.00 0.00 0.00 60 1013.7
20260905215526 91 270 2.0 3.0 0.00 0.00 0.00 61 1014.0
20260905215023 92 204 5.0 7.0 0.00 0.00 0.00 59 1014.2
20260905214518 92 207 3.0 6.0 0.00 0.00 0.00 60 1014.1
20260905214013 92 163 0.0 1.0 0.00 0.00 0.00 60 1014.0
20260905213509 92 140 0.0 2.0 0.00 0.00 0.00 60 1014.2
20260905213004 93 227 2.0 7.0 0.00 0.00 0.00 59 1014.3
20260905212459 91 230 2.0 3.0 0.00 0.00 0.00 61 1014.2
20260905211958 92 243 2.0 4.0 0.00 0.00 0.00 61 1014.1
20260905211454 92 71 2.0 4.0 0.00 0.00 0.00 60 1014.0
20260905210949 91 142 0.0 3.0 0.00 0.00 0.00 62 1014.0
20260905210444 92 257 2.0 4.0 0.00 0.00 0.00 62 1014.2
20260905205944 92 358 2.0 2.0 0.00 0.00 0.00 63 1014.3
20260905205439 91 131 0.0 3.0 0.00 0.00 0.00 64 1014.3
20260905204937 92 146 1.0 4.0 0.00 0.00 0.00 62 1014.2
20260905204433 93 117 0.0 6.0 0.00 0.00 0.00 60 1014.4
20260905203932 93 156 1.0 7.0 0.00 0.00 0.00 60 1014.3
20260905203428 93 138 0.0 1.0 0.00 0.00 0.00 62 1014.7
20260905202923 93 99 0.0 1.0 0.00 0.00 0.00 62 1014.2
20260905202419 93 193 3.0 3.0 0.00 0.00 0.00 59 1014.4
20260905201914 93 139 0.0 1.0 0.00 0.00 0.00 57 1014.5
20260905201409 93 137 0.0 1.0 0.00 0.00 0.00 58 1014.5
20260905200909 93 111 0.0 2.0 0.00 0.00 0.00 58 1014.8
20260905200405 93 125 1.0 2.0 0.00 0.00 0.00 57 1014.7
20260905195903 94 130 0.0 1.0 0.00 0.00 0.00 57 1014.7
20260905195358 94 133 0.0 2.0 0.00 0.00 0.00 58 1015.0
20260905194854 93 42 1.0 3.0 0.00 0.00 0.00 58 1015.0
20260905194354 92 108 1.0 2.0 0.00 0.00 0.00 60 1015.0
20260905193853 92 117 1.0 1.0 0.00 0.00 0.00 64 1014.9
20260905193348 90 188 2.0 2.0 0.00 0.00 0.00 65 1015.3
20260905192844 89 149 0.0 2.0 0.00 0.00 0.00 70 1015.1
20260905192339 88 224 2.0 3.0 0.00 0.00 0.00 70 1015.2
20260905191838 88 219 2.0 3.0 0.00 0.00 0.00 70 1015.4
20260905191338 87 134 0.0 2.0 0.00 0.00 0.00 72 1015.6
20260905190837 87 136 1.0 4.0 0.00 0.00 0.00 74 1016.0
20260905190330 88 171 2.0 2.0 0.00 0.00 0.00 70 1015.9
20260905185829 89 210 2.0 3.0 0.00 0.00 0.00 66 1015.9
20260905185325 89 153 1.0 2.0 0.00 0.00 0.00 68 1016.0
20260905184824 88 143 1.0 3.0 0.00 0.00 0.00 69 1015.8
20260905184323 88 146 1.0 3.0 0.00 0.00 0.00 72 1015.8
20260905183822 85 70 2.0 3.0 0.00 0.00 0.00 78 1015.9
20260905183318 85 109 1.0 2.0 0.00 0.00 0.00 78 1015.8
20260905182818 84 126 1.0 2.0 0.00 0.00 0.00 79 1015.6
20260905182317 82 111 1.0 3.0 0.00 0.00 0.00 82 1016.0
20260905181813 82 128 0.0 1.0 0.00 0.00 0.00 83 1016.3
20260905181312 83 194 2.0 2.0 0.00 0.00 0.00 81 1016.3
20260905180811 83 153 0.0 2.0 0.00 0.00 0.00 80 1016.2
20260905180307 83 40 1.0 2.0 0.00 0.00 0.00 80 1016.6
20260905175801 83 129 0.0 1.0 0.00 0.00 0.00 80 1016.5
20260905175256 84 129 0.0 2.0 0.00 0.00 0.00 79 1016.6
20260905174751 84 88 1.0 2.0 0.00 0.00 0.00 78 1016.4
20260905174247 84 122 0.0 0.0 0.00 0.00 0.00 79 1016.3
20260905173743 84 121 1.0 1.0 0.00 0.00 0.00 77 1016.7
20260905173239 85 42 2.0 2.0 0.00 0.00 0.00 74 1016.8
20260905172738 86 65 2.0 6.0 0.00 0.00 0.00 72 1017.1
20260905172232 87 130 2.0 3.0 0.00 0.00 0.00 68 1017.1
20260905171729 88 351 5.0 7.0 0.00 0.00 0.00 63 1016.8
20260905171225 89 104 0.0 2.0 0.00 0.00 0.00 62 1016.6
20260905170721 90 32 2.0 4.0 0.00 0.00 0.00 61 1016.7
20260905170221 90 77 2.0 3.0 0.00 0.00 0.00 63 1016.6
20260905165721 90 95 0.0 2.0 0.00 0.00 0.00 61 1016.7
20260905165216 92 96 0.0 2.0 0.00 0.00 0.00 59 1016.8
20260905164716 93 352 1.0 1.0 0.00 0.00 0.00 56 1016.7
20260905164216 93 112 0.0 3.0 0.00 0.00 0.00 57 1016.9
20260905163712 93 214 2.0 4.0 0.00 0.00 0.00 56 1017.2
20260905163209 93 95 1.0 2.0 0.00 0.00 0.00 56 1016.7
20260905162704 93 120 0.0 2.0 0.00 0.00 0.00 56 1016.6
20260905162204 91 31 2.0 3.0 0.00 0.00 0.00 58 1016.8
20260905161659 90 178 1.0 4.0 0.00 0.00 0.00 60 1016.9
20260905161157 91 208 2.0 3.0 0.00 0.00 0.00 59 1016.7
20260905160656 91 116 0.0 2.0 0.00 0.00 0.00 60 1016.7
20260905160155 91 107 0.0 2.0 0.00 0.00 0.00 63 1016.9
20260905155650 90 124 0.0 2.0 0.00 0.00 0.00 63 1016.8
20260905155149 89 135 0.0 2.0 0.00 0.00 0.00 64 1016.8
20260905154643 88 192 1.0 3.0 0.00 0.00 0.00 64 1016.8
20260905154139 87 119 1.0 2.0 0.00 0.00 0.00 66 1017.1
20260905153635 87 179 2.0 4.0 0.00 0.00 0.00 66 1017.0
20260905153130 86 146 1.0 1.0 0.00 0.00 0.00 70 1017.0
20260905152625 85 115 0.0 1.0 0.00 0.00 0.00 73 1017.1
20260905152119 85 118 0.0 1.0 0.00 0.00 0.00 73 1017.2
20260905151614 85 187 1.0 2.0 0.00 0.00 0.00 72 1017.1
20260905151110 86 182 2.0 3.0 0.00 0.00 0.00 71 1017.1
20260905150605 86 135 0.0 1.0 0.00 0.00 0.00 71 1017.1
20260905150104 85 161 1.0 2.0 0.00 0.00 0.00 71 1017.2
20260905145602 84 137 1.0 2.0 0.00 0.00 0.00 74 1017.2
20260905145101 83 113 0.0 1.0 0.00 0.00 0.00 75 1017.2
20260905144556 83 121 1.0 3.0 0.00 0.00 0.00 76 1017.2
20260905144055 84 153 1.0 2.0 0.00 0.00 0.00 74 1017.1
20260905143555 84 144 0.0 0.0 0.00 0.00 0.00 76 1017.2
20260905143051 83 97 1.0 1.0 0.00 0.00 0.00 76 1017.5
20260905142549 83 127 0.0 1.0 0.00 0.00 0.00 78 1017.4
20260905142049 83 154 1.0 1.0 0.00 0.00 0.00 78 1017.4
20260905141544 83 118 0.0 0.0 0.00 0.00 0.00 79 1017.2
20260905141041 82 149 0.0 2.0 0.00 0.00 0.00 78 1017.4
20260905140542 82 125 0.0 2.0 0.00 0.00 0.00 79 1017.5
20260905140040 81 115 1.0 1.0 0.00 0.00 0.00 81 1017.3
20260905135536 80 121 0.0 1.0 0.00 0.00 0.00 82 1017.6
20260905135036 81 208 1.0 3.0 0.00 0.00 0.00 81 1017.4
20260905134531 81 124 0.0 1.0 0.00 0.00 0.00 81 1017.5
20260905134029 80 135 0.0 1.0 0.00 0.00 0.00 84 1017.4
20260905133525 80 119 0.0 2.0 0.00 0.00 0.00 83 1017.4
20260905133020 80 130 1.0 1.0 0.00 0.00 0.00 82 1017.3
20260905132519 79 111 0.0 2.0 0.00 0.00 0.00 84 1017.7
20260905132014 79 90 1.0 1.0 0.00 0.00 0.00 84 1017.7
20260905131515 78 94 0.0 0.0 0.00 0.00 0.00 85 1017.8
20260905131010 78 93 0.0 0.0 0.00 0.00 0.00 86 1017.8
20260905130509 78 92 0.0 1.0 0.00 0.00 0.00 87 1017.7
20260905130004 77 78 0.0 1.0 0.00 0.00 0.00 87 1017.9
20260905125458 77 120 0.0 0.0 0.00 0.00 0.00 90 1017.9
20260905124954 76 121 0.0 0.0 0.00 0.00 0.00 92 1017.8
20260905124451 76 121 0.0 0.0 0.00 0.00 0.00 93 1017.9
20260905123945 75 121 0.0 0.0 0.00 0.00 0.00 95 1018.0
20260905123442 75 121 0.0 0.0 0.00 0.00 0.00 96 1018.1
20260905122943 75 121 0.0 0.0 0.00 0.00 0.00 96 1017.8
20260905122442 74 121 0.0 0.0 0.00 0.00 0.00 96 1017.8
20260905121938 74 121 0.0 1.0 0.00 0.00 0.00 97 1017.7
20260905121433 74 121 0.0 0.0 0.00 0.00 0.00 97 1017.6
20260905120932 73 121 0.0 0.0 0.00 0.00 0.00 97 1017.6
20260905120427 73 121 0.0 0.0 0.00 0.00 0.00 97 1017.5
20260905115922 73 121 0.0 0.0 0.00 0.00 0.00 97 1017.5
20260905115422 73 120 0.0 1.0 0.00 0.00 0.00 97 1017.2
20260905114917 73 120 0.0 0.0 0.00 0.00 0.00 97 1017.1
20260905114416 73 120 0.0 0.0 0.00 0.00 0.00 97 1017.2
20260905113915 73 120 0.0 0.0 0.00 0.00 0.00 97 1017.0
20260905113411 73 120 0.0 0.0 0.00 0.00 0.00 97 1016.9
20260905112906 73 120 0.0 0.0 0.00 0.00 0.00 97 1017.1
20260905112401 73 120 0.0 0.0 0.00 0.00 0.00 97 1016.8
20260905111857 73 120 0.0 0.0 0.00 0.00 0.00 97 1016.8
20260905111356 73 120 0.0 0.0 0.00 0.00 0.00 97 1016.7
20260905110855 73 120 0.0 0.0 0.00 0.00 0.00 97 1016.7
20260905110349 73 120 0.0 0.0 0.00 0.00 0.00 97 1016.8
20260905105845 73 120 0.0 0.0 0.00 0.00 0.00 96 1016.6
20260905105345 73 120 0.0 0.0 0.00 0.00 0.00 96 1016.7
20260905104844 73 120 0.0 0.0 0.00 0.00 0.00 96 1016.4
20260905104341 73 120 0.0 0.0 0.00 0.00 0.00 96 1016.6
20260905103840 73 120 0.0 0.0 0.00 0.00 0.00 96 1016.8
20260905103336 73 120 0.0 0.0 0.00 0.00 0.00 96 1016.3
20260905102832 73 120 0.0 0.0 0.00 0.00 0.00 96 1016.4
20260905102329 73 120 0.0 0.0 0.00 0.00 0.00 96 1016.3
20260905101828 73 120 0.0 0.0 0.00 0.00 0.00 96 1016.3
20260905101326 73 120 0.0 0.0 0.00 0.00 0.00 96 1016.3
20260905100821 73 120 0.0 0.0 0.00 0.00 0.00 96 1016.2
20260905100317 73 120 0.0 0.0 0.00 0.00 0.00 96 1016.0
20260905095817 73 120 0.0 0.0 0.00 0.00 0.00 96 1016.1
20260905095316 73 120 0.0 0.0 0.00 0.00 0.00 96 1016.0